DateTimeUTC,F1_A11,F1_S11,BsB_S11,BsG_S11,BsR_S11,BbsB_S11,BbsG_S11,BbsR_S11,BaB_A11,BaG_A11,BaR_A11,Tu_S11,T_S11,Uu_S11,U_S11,P_S11,T1_A11
2021-02-17T18:00:00Z,00000200,21000000,,,,,,,0000.08,0000.54,-000.19,16.2,23.1,,00.0,0636.5,30.9
2021-02-17T18:01:00Z,00000200,21000000,,,,,,,0000.66,-000.04,0000.14,16.2,23.2,,00.0,0636.5,30.9
2021-02-17T18:02:00Z,00000200,21000000,,,,,,,-000.21,0000.21,0000.38,16.2,23.1,,00.0,0636.5,30.9
2021-02-17T18:03:00Z,00000200,61000000,,,,,,,0000.84,0000.30,0000.37,16.2,23.1,,00.0,0636.5,30.9
2021-02-17T18:04:00Z,00000200,41000000,0000.11,0000.10,-000.17,0000.94,0000.19,-000.14,0000.07,0000.37,0000.15,16.3,22.9,,00.0,0637.3,30.9
2021-02-17T18:05:00Z,00000200,01000000,0000.35,0000.05,0000.16,0000.53,-000.17,-000.11,0000.58,0000.24,0000.31,16.3,22.8,,00.0,0637.4,30.9
2021-02-17T18:06:00Z,00000200,01000000,-000.27,0000.11,-000.14,0000.22,0000.14,-000.16,0000.26,0000.47,0000.08,16.4,22.8,,00.0,0637.4,30.9
2021-02-17T18:07:00Z,00000200,01000000,0000.67,0000.01,-000.14,0000.61,0000.11,-000.07,0000.22,0000.31,0000.37,16.5,22.8,,00.0,0637.4,31.0
2021-02-17T18:08:00Z,00000200,01000000,0000.67,0000.17,-000.15,0000.51,0000.01,-000.07,0000.14,0000.01,0000.15,16.6,22.9,,00.0,0637.4,31.0
2021-02-17T18:09:00Z,00000200,01000000,0000.30,0000.23,-000.21,0000.22,-000.17,0000.03,0000.39,-000.01,-000.09,16.7,22.9,,00.0,0637.4,31.0
2021-02-17T18:10:00Z,00000200,01000000,0000.06,0000.05,-000.11,0000.01,-000.17,0000.07,-000.17,-000.12,0000.23,16.8,23.0,,00.0,0637.4,31.0
2021-02-17T18:11:00Z,00000200,01000000,0000.57,0000.28,0000.32,-000.17,0000.07,-000.11,-000.50,0000.01,0000.05,16.8,23.0,,00.0,0637.4,31.0
2021-02-17T18:12:00Z,00000200,01000000,0000.86,0000.21,0000.22,-000.19,0000.04,-000.01,0000.12,0000.18,-000.03,16.8,23.0,,00.0,0637.5,31.0
2021-02-17T18:13:00Z,00000200,01000000,-000.42,0000.40,-000.02,0000.29,0000.08,-000.19,0000.03,-000.20,-000.38,16.8,23.0,,00.0,0637.5,31.0
2021-02-17T18:14:00Z,00000200,01000000,0000.08,0000.20,-000.03,0000.01,-000.05,-000.16,-000.02,0000.02,0000.39,16.7,22.9,,00.0,0637.5,31.0
2021-02-17T18:15:00Z,00000200,01000000,0000.23,0000.16,-000.04,-000.05,-000.01,-000.00,-000.21,-000.09,-000.62,16.7,22.9,,00.0,0637.5,31.0
2021-02-17T18:16:00Z,00000200,01000000,0000.66,-000.22,-000.21,0000.20,0000.02,0000.11,-000.04,0000.12,0000.21,16.6,22.9,,00.0,0637.5,31.0
2021-02-17T18:17:00Z,00000200,01000000,0000.76,0000.21,0000.22,-000.21,-000.03,-000.13,0000.29,0000.13,0000.10,16.6,22.9,,00.0,0637.5,31.0
2021-02-17T18:18:00Z,00000200,01000000,0000.17,-000.09,0000.23,0000.23,-000.04,0000.12,0000.29,-000.10,-000.02,16.6,22.9,,00.0,0637.5,31.0
2021-02-17T18:19:00Z,00000200,01000000,0000.22,0000.09,-000.10,0000.30,-000.01,0000.17,0000.18,0000.12,0000.54,16.6,22.8,,00.0,0637.5,31.0
2021-02-17T18:20:00Z,00000200,01000000,0000.40,-000.07,-000.12,0000.48,0000.02,0000.02,0000.44,0000.58,-000.22,16.6,22.8,,00.0,0637.5,31.0
2021-02-17T18:21:00Z,00000200,01000000,-000.14,0000.01,0000.10,0000.60,0000.00,0000.01,-000.11,-000.15,0000.37,16.7,22.8,,00.0,0637.5,31.0
2021-02-17T18:22:00Z,00000200,01000000,-000.07,0000.13,-000.04,-000.02,0000.09,0000.05,0000.08,0000.62,0000.19,16.8,22.9,,00.0,0637.5,31.0
2021-02-17T18:23:00Z,00000200,01000000,0000.07,0000.10,-000.19,0000.43,-000.08,-000.14,0000.28,-000.04,0000.01,16.9,22.9,,00.0,0637.5,31.0
2021-02-17T18:24:00Z,00000200,01000000,0000.26,0000.15,0000.17,0000.41,0000.28,-000.12,0000.17,0000.02,-000.20,16.9,23.0,,00.0,0637.5,31.0
2021-02-17T18:25:00Z,00000200,01000000,0000.49,-000.06,-000.03,0000.23,-000.07,0000.23,-000.19,-000.39,0000.10,17.0,23.0,,00.0,0637.5,31.0
2021-02-17T18:26:00Z,00000200,01000000,0000.23,0000.11,0000.02,0000.50,0000.01,0000.12,-000.18,0000.54,-000.06,17.0,23.0,,00.0,0637.5,31.0
2021-02-17T18:27:00Z,00000200,01000000,0000.33,0000.51,-000.06,0000.19,0000.07,-000.05,0000.20,-000.14,0000.09,17.0,23.0,,00.0,0637.5,31.0
2021-02-17T18:28:00Z,00000200,01000000,0000.70,0000.08,0000.09,-000.08,0000.08,-000.09,-000.32,-000.21,-000.10,16.9,23.0,,00.0,0637.5,31.0
2021-02-17T18:29:00Z,00000200,01000000,0000.66,0000.00,0000.18,0000.71,0000.32,0000.28,0000.48,0000.19,0000.02,16.9,23.0,,00.0,0637.5,31.0
2021-02-17T18:30:00Z,00000200,01000000,0000.28,-000.07,0000.16,0000.08,-000.28,0000.14,-000.24,0000.17,0000.07,16.9,23.0,,00.0,0637.6,31.0
2021-02-17T18:31:00Z,00000200,01000000,-000.34,-000.34,0000.10,0000.28,0000.32,0000.13,0000.05,-000.38,-000.13,16.8,22.9,,00.0,0637.6,31.0
2021-02-17T18:32:00Z,00000200,01000000,0000.35,0000.05,0000.32,0000.30,-000.17,-000.00,0000.27,0000.17,0000.16,16.8,22.9,,00.0,0637.6,31.0
2021-02-17T18:33:00Z,00000200,01000000,0000.55,0000.26,-000.04,0000.23,-000.18,0000.03,-000.19,-000.43,-000.03,16.7,22.9,,00.0,0637.6,31.0
2021-02-17T18:34:00Z,00000200,01000000,0000.10,-000.07,0000.33,0000.69,0000.05,-000.06,0000.40,0000.53,0000.25,16.7,22.9,,00.0,0637.5,31.0
2021-02-17T18:35:00Z,00000200,01000000,0001.04,-000.14,0000.07,0000.69,-000.05,0000.04,0000.10,0000.05,-000.04,16.8,22.9,,00.0,0637.5,31.0
2021-02-17T18:36:00Z,00000200,01000000,-000.66,0000.32,0000.19,0000.77,-000.14,0000.29,0000.19,0000.70,0000.58,16.8,22.9,,00.0,0637.5,31.0
2021-02-17T18:37:00Z,00000200,01000000,0000.24,-000.12,0000.03,0000.92,0000.19,0000.11,0000.03,-000.23,-000.15,16.9,22.9,,00.0,0637.5,31.0
2021-02-17T18:38:00Z,00000200,01000000,0000.05,-000.13,0000.07,-000.17,-000.08,-000.06,0000.42,-000.12,0000.20,17.0,23.0,,00.0,0637.6,31.0
2021-02-17T18:39:00Z,00000200,01000000,0000.50,0000.34,0000.00,0000.29,0000.05,0000.09,-000.18,0000.52,-000.09,17.1,23.1,,00.0,0637.6,31.0
2021-02-17T18:40:00Z,00000200,01000000,0000.35,0000.22,0000.21,0000.46,-000.05,0000.15,0000.39,0000.21,0000.37,17.2,23.1,,00.0,0637.6,31.0
2021-02-17T18:41:00Z,00000200,01000000,-000.09,0000.24,-000.12,0000.18,0000.10,-000.07,-000.14,-000.23,-000.21,17.3,23.1,,00.0,0637.6,31.0
2021-02-17T18:42:00Z,00000200,01000000,0000.39,0000.26,-000.22,0000.63,-000.07,-000.07,-000.11,0000.18,-000.00,17.3,23.2,,00.0,0637.6,31.0
2021-02-17T18:43:00Z,00000200,01000000,0000.08,0000.11,0000.25,-000.12,-000.16,-000.15,0000.18,0000.18,0000.07,17.3,23.2,,00.0,0637.6,31.0
2021-02-17T18:44:00Z,00000200,01000000,0000.43,0000.23,0000.05,0000.53,-000.22,-000.06,-000.10,-000.11,0000.04,17.3,23.2,,00.0,0637.7,31.0
2021-02-17T18:45:00Z,00000200,01000000,-000.16,0000.17,0000.12,-000.01,0000.04,0000.12,0000.06,0000.02,0000.12,17.2,23.2,,00.0,0637.7,31.1
2021-02-17T18:46:00Z,00000200,01000000,0000.09,0000.19,-000.24,0000.45,0000.10,-000.23,0000.19,-000.07,-000.02,17.2,23.1,,00.0,0637.7,31.0
2021-02-17T18:47:00Z,00000200,01000000,0000.18,0000.01,-000.08,-000.03,0000.16,-000.09,-000.26,0000.13,-000.09,17.2,23.1,,00.0,0637.7,31.0
2021-02-17T18:48:00Z,00000200,01000000,0000.08,0000.21,0000.13,0000.01,-000.02,-000.07,-000.01,-000.55,-000.42,17.1,23.1,,00.0,0637.7,31.0
2021-02-17T18:49:00Z,00000200,01000000,0000.19,0000.23,0000.35,0000.47,0000.04,0000.26,0000.07,0000.16,0000.48,17.1,23.1,,00.0,0637.7,31.0
2021-02-17T18:50:00Z,00000200,01000000,-000.39,0000.11,0000.20,0000.42,0000.29,-000.00,-000.22,0000.12,-000.36,17.0,23.1,,00.0,0637.8,31.0
2021-02-17T18:51:00Z,00000200,01000000,0000.60,0000.04,-000.04,0000.35,-000.15,0000.06,0000.10,0000.04,0000.00,17.0,23.1,,00.0,0637.8,31.0
2021-02-17T18:52:00Z,00000200,01000000,-000.51,0000.21,0000.08,0000.08,0000.05,0000.09,-000.09,-000.16,0000.14,17.0,23.1,,00.0,0637.8,31.0
2021-02-17T18:53:00Z,00000200,01000000,-000.15,0000.07,0000.06,0000.15,0000.10,-000.05,0000.17,0000.20,-000.34,16.9,23.1,,00.0,0637.8,31.0
2021-02-17T18:54:00Z,00000200,01000000,0000.35,-000.01,0000.27,0000.43,-000.01,0000.07,0000.21,-000.02,0000.23,16.9,23.1,,00.0,0637.8,31.0
2021-02-17T18:55:00Z,00000200,01000000,-000.04,0000.21,0000.16,0000.14,0000.20,0000.06,-000.11,-000.09,0000.24,16.9,23.0,,00.0,0637.8,31.0
2021-02-17T18:56:00Z,00000200,01000000,0000.20,0000.04,0000.34,0000.23,0000.08,0000.09,-000.05,0000.07,-000.56,16.9,23.0,,00.0,0637.8,31.0
2021-02-17T18:57:00Z,00000200,41000000,,,,,,,-000.23,-000.46,-000.07,16.9,23.1,,00.0,0637.7,31.0
2021-02-17T18:58:00Z,00000200,61000000,,,,,,,-000.21,0000.13,0000.10,16.5,23.1,,00.0,0636.8,31.0
2021-02-17T18:59:00Z,00000200,21000000,,,,,,,0000.01,-000.24,0000.12,16.5,23.2,,00.0,0636.8,31.0
